Location: Anankanda
(14.7841°N, 3.0348°W)
Time: 06:08:27
(UTC+00:00)

NOSS 2-1 (D) - Pass Details

Date: 17 January 2021
Orbit: 434 x 1768 km, 63.3° (Epoch: 27 February)

Event Time Altitude Azimuth Distance (km) Brightness Sun altitude
Rises 18:20:30 0° 189° (S) 3,168 7.6 -4.7°
Reaches altitude 10° 18:23:20 10° 181° (S) 2,044 6.5 -5.4°
Maximum altitude 18:27:20 33° 116° (ESE) 917 4.1 -6.3°
Drops below altitude 10° 18:30:35 10° 50° (NE) 1,644 5.2 -7.0°
Enters shadow 18:31:10 - 46° (NE) 1,862 5.5 -7.1°
